User: anonymous   Login
Location: Fort Wayne
(41.1310°N, 85.1290°W)
Time: 04:47:29
(UTC-04:00)
Language:

Cosmos 2219 Rocket - Orbit

View from above orbital plane
View from above orbital plane
View from above satellite
View from above satellite

Ground track
Ground track

The orbit data is extracted from the following two-line orbital elements,

1 22220U 92076B   15114.48568477  .00000184  00000-0  11671-3 0  9995
2 22220 070.9992 270.9283 0011918 019.7077 004.1377 14.16361675159667
Epoch (UTC): 24 April 2015 11:39:23
Eccentricity: 0.0011918
inclination: 70.9992°
perigee height: 829 km
apogee height: 846 km
right ascension of ascending node: 270.9283°
argument of perigee: 19.7077°
revolutions per day: 14.16361675
mean anomaly at epoch: 4.1377°
orbit number at epoch: 15966

The dashed part of the orbit path shows where the satellite is in the earth's shadow,  

DLR